Location: Lombard
(41.8800°N, 88.0080°W)
Time: 02:56:38
(UTC-05:00)

CAS-6 - Visible Passes

Search period start: 16 May 2022 00:00
Search period end: 26 May 2022 00:00
Orbit: 614 x 633 km, 97.9° (Epoch: 15 May)

Date Brightness Start Highest point End Pass type
(mag) Time Alt. Az. Time Alt. Az. Time Alt. Az.
16 May ? 21:48:49 12° E 21:50:06 13° ENE 21:52:11 10° NNE visible
16 May ? 23:26:03 61° WNW 23:26:03 61° WNW 23:30:06 10° NNW visible
17 May ? 22:07:27 19° E 22:08:22 20° ENE 22:11:33 10° NNE visible
17 May ? 23:44:41 38° W 23:44:41 38° W 23:48:24 10° NNW visible
18 May ? 22:26:04 29° E 22:26:42 30° ENE 22:30:31 10° N visible
19 May ? 00:03:19 24° W 00:03:19 24° W 00:06:30 10° NW visible
19 May ? 22:44:42 45° E 22:45:05 46° ENE 22:49:17 10° N visible
20 May ? 00:21:57 16° W 00:21:57 16° W 00:24:14 10° NW visible
20 May ? 23:03:20 73° E 23:03:30 74° ENE 23:07:53 10° N visible
21 May ? 21:44:43 10° E 21:46:23 12° ENE 21:48:10 10° NE visible
21 May ? 23:21:57 70° WSW 23:21:58 70° WSW 23:26:23 10° NNW visible
22 May ? 22:03:21 16° E 22:04:39 18° ENE 22:07:40 10° NNE visible
22 May ? 23:40:36 43° W 23:40:36 43° W 23:44:42 10° NNW visible
23 May ? 22:21:59 25° E 22:22:58 27° ENE 22:26:41 10° N visible
23 May ? 23:59:13 27° W 23:59:13 27° W 00:02:51 10° NW visible
24 May ? 22:40:37 39° E 22:41:19 42° ENE 22:45:29 10° N visible
25 May ? 00:17:51 18° W 00:17:51 18° W 00:20:41 10° NW visible
25 May ? 22:59:15 61° ESE 22:59:44 67° ENE 23:04:07 10° N visible
